OBJECT C, 44854

Orbit data source: Space-Track

You're viewing an Uncataloged Satellite

Recently launched and/or uncataloged satellites may have evolving metadata. Metadata may include but not limited to: Owner, Maufacturer, Bus, Motor, and Mission.

OBJECT C, 44854 is a satellite in LEO that was launched on Wed, 11 Dec 2019 UTC via a PSLV-QL launch vehicle from the Sirharikota (SRI). Unknown objects in Earth's orbit typically refer to objects detected orbiting the Earth but have not yet been identified or cataloged. These objects could be anything from previously untracked satellites, spent rocket stages, debris from satellite collisions, or even natural meteoroids temporarily captured by Earth's gravity.

Loading next visibility...
Identifier
44854, 2019-089C
Orbit
LEO
Country
Flag of TBDTBD
Related business
Manufacturer
Herzliya
Mission
Operational Amateur Imaging
Bus & Motor
CUBESAT 3U, Unknown motor
Mass
4 kg wet, 4 kg dry
Launch date (UTC)
2019-12-11 (6 years ago)
Launch vehicle
PSLV-QL
Launch site
Sirharikota (SRI)
Object type
Unknown
Shape & HBR
Box, Unknown HBR
Radar Cross Section
0.035 m², Small (<0.1 m²)

Expand to show TLE details & history
Last TLE update: 22 hours ago

TLE from 22 hours ago
0 OBJECT C
1 44854U 19089C   25242.11447353  .00094875  00000-0  14001-2 0  9996
2 44854  36.9389 194.1431 0008412 252.3677 107.6164 15.54116428315679
Epoch: 2025-08-30T02:44Z
TLE epoch observation values (Epoch: 2025-08-30T02:44:50.513Z)
Latitude
0.00003°
Longitude
174.37926°
Altitude
405.553 km
Speed
7.669 km/s
True Right ascension
12h 56m 34s
True Declination
0° 00' 00"
Sunlit
Object was in daylight at epoch
Visualization orbit readout
Latitude
Unknown
Longitude
Unknown
Altitude
Unknown
Speed
Unknown
Apparent Right ascension
Unknown
Apparent Declination
Unknown
Sunlit
N/A
Visualization observer readout
Local Sidereal Time
16:02:11
Azimuth
Unknown
Elevation
Unknown
Doppler factor
Unknown
Orbital elements
Apogee altitude
413.411 km
Perigee altitude
401.995 km
Semi-major axis
6,785.84 km
Eccentricity
0.00084
Inclination
36.9389°
RAAN
194.1431°
Arg. of periapsis
252.3677°
True anomaly
107.70824°
Mean anomaly
107.6164°
Eccentric anomaly
107.66233°
Mean motion
3.88273 °/min
Orbital period
92.72 mins
BSTAR
0.0014001
Loading maneuver chart data...
Computing Atmospheric mass density...
Loading historical data...
Loading historical data...
Loading historical data...
Loading historical data...
Loading historical data...
Loading historical data...
Loading historical data...

Documentation

Showing up to 5 results
|